#timestamp,LO_Frequency,Hit,StdDev 
1586239215.7,286047001.1,N
1586239235.5,286047000.7,N
1586239255.4,286047000.4,N
1586239275.2,286047001.1,N
1586239295.0,286046998.8,N
1586239295.9,286046998.8,N
1586239315.8,286046998.9,N
1586239335.6,286046999.1,N
1586239355.4,286046997.4,N
1586239375.3,286046999.6,N
1586239395.1,286046997.1,N
1586239415.9,286046997.8,N
1586239435.7,286046995.0,Y
1586239455.5,286046995.8,P
1586239475.4,286046997.3,N
1586239495.2,286046997.8,N
1586239515.1,286046995.5,Y
1586239516.0,286046995.5,P
1586239535.8,286046998.4,N
1586239555.6,286046999.1,N
1586239575.5,286046999.2,N
1586239595.3,286046999.0,N
1586239615.2,286046998.9,N
1586239635.9,286046998.4,N
1586239655.7,286046999.0,N
1586239675.6,286046998.7,N
1586239695.4,286046997.0,N
1586239715.2,286046999.6,N
1586239735.1,286046998.1,N
1586239736.0,286046998.1,N
1586239755.8,286046998.6,N
1586239775.7,286046998.4,N
1586239795.5,286046998.2,N
1586239815.3,286047000.1,N
1586239835.2,286046999.9,N
1586239855.0,286047001.2,N
1586239855.9,286047001.2,N
1586239875.8,286046999.7,N
1586239895.6,286047004.2,Y
1586239915.4,286047003.7,P
1586239935.3,286047003.9,N
1586239955.1,286047004.4,N
1586239975.9,286047004.3,N
1586239995.7,286047004.2,N
1586240015.5,286047005.4,N
1586240035.4,286047005.8,N
1586240055.2,286047007.5,Y
1586240075.0,286046999.7,P
1586240075.9,286046999.7,N
1586240095.8,286047002.0,N
1586240115.6,286046999.9,N
1586240135.5,286047001.9,N
1586240155.3,286047002.8,N
1586240175.1,286046999.4,N
1586240195.9,286047000.5,N
1586240215.7,286047000.4,N
1586240235.6,286046998.1,N
1586240255.4,286047000.8,N
1586240275.2,286046999.9,N
1586240295.1,286047000.9,N
1586240296.0,286047000.9,N
1586240315.8,286047000.3,N
1586240335.6,286047001.2,N
1586240355.5,286047000.4,N
1586240375.3,286047002.4,N
1586240395.2,286047001.3,N
1586240415.9,286047002.1,N
1586240435.7,286047000.4,N
1586240455.6,286046998.4,N
1586240475.4,286047001.9,N
1586240495.3,286047004.3,Y
1586240515.1,286047002.3,P
1586240516.0,286047002.3,P
1586240535.8,286047002.4,P
1586240555.7,286047000.3,N
1586240575.5,286047000.0,N
1586240595.3,286047002.4,N
1586240615.2,286047002.0,N
1586240635.0,286047002.6,N
1586240635.9,286047002.6,N
1586240655.8,286047003.5,Y
1586240675.6,286047003.7,P
1586240695.4,286047005.5,P
1586240715.3,286047002.0,N
1586240735.1,286047002.3,N
1586240755.9,286047001.3,N
1586240775.7,286046999.7,N
1586240795.5,286046998.1,N
1586240815.4,286046999.8,N
1586240835.2,286047001.7,N
1586240855.0,286047001.5,N
1586240855.9,286047001.5,N
1586240875.8,286047003.7,N
1586240895.6,286047000.1,N
1586240915.5,286046998.6,N
1586240935.3,286047000.5,N
1586240955.1,286047000.9,N
1586240975.9,286047000.6,N
1586240995.7,286046998.6,N
1586241015.6,286047001.1,N
1586241035.4,286047000.9,N
1586241055.2,286046999.7,N
1586241075.1,286047002.8,N
1586241076.0,286047002.8,N
1586241095.8,286047002.7,N
1586241115.7,286046999.9,N
1586241135.5,286047000.7,N
1586241155.3,286047003.7,N
1586241175.2,286047003.5,N
1586241195.0,286047005.2,Y
1586241195.9,286047005.2,P
1586241215.8,286047001.5,N
1586241235.6,286047005.3,N
1586241255.4,286047003.0,N
1586241275.3,286047001.4,N
1586241295.1,286047004.2,N
1586241315.8,286047004.3,N
1586241335.7,286047001.8,N
1586241355.5,286047001.5,N
1586241375.4,286047005.3,Y
1586241395.2,286046998.1,P
1586241415.0,286047000.3,N
1586241415.9,286047000.3,N
1586241435.8,286047000.0,N
1586241455.6,286047002.4,N
1586241475.5,286047002.5,N
1586241495.3,286047000.7,N
1586241515.1,286046999.5,N
1586241535.9,286046999.3,N
1586241555.7,286046998.5,N
1586241575.5,286046996.9,N
1586241595.4,286046997.7,N
1586241615.2,286046996.7,N
1586241635.1,286046996.5,N
1586241636.0,286046996.5,N
1586241655.8,286046997.7,N
1586241675.6,286046998.3,N
1586241695.5,286046996.8,N
1586241715.3,286046999.6,N
1586241735.2,286046998.1,N
1586241755.9,286047000.3,N
1586241775.7,286046998.3,N
1586241795.6,286047000.7,N
1586241815.4,286047000.7,N
1586241835.2,286046999.3,N
1586241855.1,286046997.4,N
1586241856.0,286046997.4,N
1586241875.8,286046993.8,Y
1586241895.7,286046995.7,P
1586241915.5,286046997.2,N
1586241935.3,286046997.6,N
1586241955.2,286046998.2,N
1586241975.0,286046998.0,N
1586241975.9,286046998.0,N
1586241995.8,286047000.8,N
1586242015.6,286046997.3,N
1586242035.4,286046997.8,N
1586242055.3,286046997.5,N
1586242075.1,286046999.2,N
1586242095.8,286046997.5,N
1586242115.7,286046996.6,N
1586242135.5,286047000.8,N
1586242155.4,286047000.9,N
1586242175.2,286046998.6,N
1586242195.0,286046996.7,N
1586242195.9,286046996.7,N
1586242215.8,286046996.8,N
1586242235.6,286046996.9,N
1586242255.5,286046999.5,N
1586242275.3,286047001.1,N
1586242295.1,286047001.1,N
1586242315.9,286046999.8,N
1586242335.7,286046999.3,N
1586242355.5,286046999.3,N
1586242375.4,286047000.7,N
1586242395.2,286046999.5,N
1586242415.1,286046998.3,N
1586242416.0,286046998.3,N
1586242435.8,286047000.0,N
1586242455.6,286046998.6,N
1586242475.5,286047000.7,N
1586242495.3,286047001.2,N
1586242515.1,286046997.1,N
1586242535.9,286046998.3,N
1586242555.7,286046998.6,N
1586242575.6,286047002.0,N
1586242595.4,286047004.0,N
1586242615.2,286047003.1,N
1586242635.1,286047002.5,N
1586242636.0,286047002.5,N
1586242655.8,286046996.9,N
1586242675.7,286046995.4,N
1586242695.5,286046996.4,N
1586242715.3,286046996.1,N
1586242735.2,286046997.1,N
1586242755.0,286046998.6,N
1586242755.9,286046998.6,N
1586242775.7,286047002.4,N
1586242795.6,286047002.6,N
